Owatonna, MN

1:37 AM CST on February 22, 2017 (GMT -0600)
Owatonna Degner Regional

Weather History for KOWA - July, 2013

Change the Weather History Date:

Saturday, July 13, 2013

  Actual Average Record
Temperature  
Mean Temperature 70 °F -  
Max Temperature 77 °F 83 °F 96 °F (1974)
Min Temperature 62 °F 62 °F 43 °F (1975)
Cooling Degree Days 4    
Growing Degree Days 20 (Base 50)    
Moisture  
Dew Point 61 °F    
Average Humidity 73    
Maximum Humidity 100    
Minimum Humidity 53    
Precipitation  
Precipitation 2.78 in - - ()
Sea Level Pressure  
Sea Level Pressure 30.04 in    
Wind  
Wind Speed 14 mph (SSE)    
Max Wind Speed 23 mph    
Max Gust Speed 34 mph    
Visibility 9 miles    
Events Rain , Thunderstorm    
Averages and records for this station are not official NWS values.
T = Trace of Precipitation, MM = Missing Value Source: NWS Daily Summary

Daily Weather History Graph

Daily Weather History Graph

Search for Another Location

Airport or City:

Trip Planner

Search our weather history database for the weather conditions in past years. The results will help you decide how hot, cold, wet, or windy it might be!

Date:

Astronomy

Jul. 13, 2013 Rise Set
Actual Time 5:42 AM CDT 8:54 PM CDT
Civil Twilight 5:06 AM CDT 9:30 PM CDT
Nautical Twilight 4:21 AM CDT 10:15 PM CDT
Astronomical Twilight 3:25 AM CDT 11:10 PM CDT
Moon 11:12 AM CDT (7/13) 11:21 PM CDT (7/13)
Length of Visible Light 16h 23m
Length of Day
15h 12m
Waxing Crescent, 26% of the Moon is Illuminated
Jul 13
Waxing Crescent
Jul 15
First Quarter
Jul 22
Full
Jul 29
Last Quarter
Aug 6
New

Hourly Weather History & Observations

Time (CDT) Temp. Dew Point Humidity Pressure Visibility Wind Dir Wind Speed Gust Speed Precip Events Conditions
12:14 AM 75.2 °F 57.2 °F 53% 30.01 in 10.0 mi South 13.8 mph 20.7 mph N/A   Clear
12:34 AM 75.2 °F 57.2 °F 53% 30.00 in 10.0 mi South 15.0 mph 24.2 mph N/A   Clear
12:54 AM 73.4 °F 57.2 °F 57% 30.00 in 10.0 mi South 16.1 mph 23.0 mph N/A   Clear
1:14 AM 73.4 °F 57.2 °F 57% 29.99 in 10.0 mi South 16.1 mph 20.7 mph N/A   Clear
1:34 AM 73.4 °F 57.2 °F 57% 29.98 in 10.0 mi South 15.0 mph - N/A   Clear
1:54 AM 73.4 °F 57.2 °F 57% 29.98 in 10.0 mi SSE 13.8 mph 21.9 mph N/A   Clear
2:14 AM 73.4 °F 57.2 °F 57% 30.00 in 10.0 mi SSE 13.8 mph 21.9 mph N/A   Clear
2:34 AM 73.4 °F 57.2 °F 57% 30.00 in 10.0 mi SSE 12.7 mph 23.0 mph N/A   Clear
2:54 AM 73.4 °F 57.2 °F 57% 29.98 in 10.0 mi SSE 17.3 mph - N/A   Clear
3:14 AM 73.4 °F 57.2 °F 57% 29.97 in 10.0 mi SSE 18.4 mph 21.9 mph N/A   Clear
3:34 AM 73.4 °F 57.2 °F 57% 29.97 in 10.0 mi South 16.1 mph 24.2 mph N/A Thunderstorm Clear
3:54 AM 73.4 °F 55.4 °F 53% 29.97 in 10.0 mi South 15.0 mph 23.0 mph N/A Thunderstorm Clear
4:14 AM 73.4 °F 55.4 °F 53% 29.97 in 10.0 mi South 13.8 mph 20.7 mph N/A Thunderstorm Scattered Clouds
4:34 AM 73.4 °F 57.2 °F 57% 30.03 in 10.0 mi NW 15.0 mph 20.7 mph N/A Thunderstorm Thunderstorm
4:54 AM 73.4 °F 57.2 °F 57% 30.03 in 10.0 mi SW 5.8 mph - N/A Thunderstorm Mostly Cloudy
5:14 AM 71.6 °F 57.2 °F 60% 30.02 in 10.0 mi Calm Calm - N/A Rain , Thunderstorm Light Thunderstorms and Rain
5:34 AM 69.8 °F 60.8 °F 73% 30.05 in 10.0 mi SSW 4.6 mph - 0.01 in Rain , Thunderstorm Light Thunderstorms and Rain
5:54 AM 68.0 °F 62.6 °F 83% 30.05 in 10.0 mi WSW 6.9 mph - 0.03 in Rain , Thunderstorm Heavy Thunderstorms and Rain
6:14 AM 64.4 °F 62.6 °F 94% 30.02 in 3.0 mi SE 13.8 mph 25.3 mph 0.48 in Rain , Thunderstorm Heavy Thunderstorms and Rain
6:35 AM 64.4 °F - N/A% 30.13 in - North 10.4 mph - 0.05 in Thunderstorm Thunderstorm
6:54 AM 64.4 °F 62.6 °F 94% 30.05 in 7.0 mi ESE 16.1 mph - 0.39 in Rain , Thunderstorm Heavy Thunderstorms and Rain
7:14 AM 64.4 °F 62.6 °F 94% 30.07 in 5.0 mi SSE 13.8 mph - 0.27 in Rain , Thunderstorm Heavy Thunderstorms and Rain
7:34 AM 64.4 °F 62.6 °F 94% 30.06 in 2.5 mi ESE 19.6 mph - 0.88 in Rain , Thunderstorm Heavy Thunderstorms and Rain
7:54 AM 62.6 °F 62.6 °F 100% 30.07 in 2.5 mi ESE 16.1 mph 21.9 mph 1.20 in Rain , Thunderstorm Heavy Thunderstorms and Rain
8:14 AM 62.6 °F 62.6 °F 100% 30.12 in 10.0 mi North 11.5 mph - 0.10 in Rain , Thunderstorm Light Thunderstorms and Rain
8:34 AM 62.6 °F 62.6 °F 100% 30.12 in 4.0 mi ESE 8.1 mph - 0.43 in Rain , Thunderstorm Heavy Thunderstorms and Rain
8:54 AM 62.6 °F 62.6 °F 100% 30.12 in 7.0 mi SE 10.4 mph - 0.62 in Rain , Thunderstorm Heavy Thunderstorms and Rain
9:14 AM 62.6 °F 62.6 °F 100% 30.11 in 10.0 mi SE 13.8 mph - 0.13 in Rain , Thunderstorm Thunderstorms and Rain
9:34 AM 64.4 °F 62.6 °F 94% 30.10 in 4.0 mi SE 16.1 mph 20.7 mph 0.32 in Rain , Thunderstorm Heavy Thunderstorms and Rain
9:54 AM 64.4 °F 62.6 °F 94% 30.07 in 10.0 mi SSE 11.5 mph 21.9 mph 0.43 in Rain , Thunderstorm Rain
10:14 AM 64.4 °F 62.6 °F 94% 30.05 in 10.0 mi SSE 17.3 mph 25.3 mph 0.02 in Rain Light Rain
10:34 AM 64.4 °F 64.4 °F 100% 30.04 in 10.0 mi South 20.7 mph 25.3 mph 0.02 in Thunderstorm Clear
10:54 AM 66.2 °F 64.4 °F 94% 30.02 in 10.0 mi SSE 20.7 mph 31.1 mph 0.02 in   Clear
11:14 AM 66.2 °F 64.4 °F 94% 30.01 in 10.0 mi South 21.9 mph 29.9 mph N/A Thunderstorm Clear
11:34 AM 68.0 °F 64.4 °F 88% 29.98 in 10.0 mi South 21.9 mph 31.1 mph N/A   Clear
11:54 AM 69.8 °F 66.2 °F 88% 29.98 in 10.0 mi South 20.7 mph 26.5 mph N/A   Clear
12:14 PM 69.8 °F 64.4 °F 83% 29.98 in 10.0 mi South 23.0 mph 34.5 mph N/A   Clear
12:34 PM 69.8 °F 64.4 °F 83% 29.98 in 10.0 mi South 17.3 mph 26.5 mph N/A Thunderstorm Clear
12:55 PM 71.6 °F 66.2 °F 83% 30.00 in 10.0 mi South 16.1 mph 24.2 mph N/A   Clear
1:14 PM 73.4 °F 66.2 °F 78% 30.02 in 10.0 mi South 8.1 mph 23.0 mph N/A   Clear
1:34 PM 73.4 °F 66.2 °F 78% 30.04 in 10.0 mi Calm Calm - N/A   Clear
1:54 PM 75.2 °F 66.2 °F 73% 30.05 in 10.0 mi East 5.8 mph - N/A   Clear
2:14 PM 75.2 °F 66.2 °F 73% 30.06 in 10.0 mi SE 12.7 mph - N/A   Clear
2:34 PM 75.2 °F 66.2 °F 73% 30.06 in 10.0 mi SE 11.5 mph - N/A   Clear
2:54 PM 73.4 °F 64.4 °F 73% 30.05 in 10.0 mi SSE 15.0 mph 21.9 mph N/A   Clear
3:14 PM 73.4 °F 64.4 °F 73% 30.05 in 10.0 mi SE 13.8 mph 20.7 mph N/A   Clear
3:34 PM 73.4 °F 62.6 °F 69% 30.05 in 10.0 mi SE 15.0 mph 19.6 mph N/A   Clear
3:54 PM 73.4 °F 62.6 °F 69% 30.04 in 10.0 mi SE 16.1 mph - N/A   Clear
4:14 PM 75.2 °F 60.8 °F 61% 30.04 in 10.0 mi SSE 18.4 mph 23.0 mph N/A   Clear
4:34 PM 75.2 °F 60.8 °F 61% 30.04 in 10.0 mi SSE 18.4 mph 25.3 mph N/A   Clear
4:54 PM 75.2 °F 62.6 °F 65% 30.04 in 10.0 mi SSE 16.1 mph - N/A   Clear
5:14 PM 77.0 °F 62.6 °F 61% 30.04 in 10.0 mi SSE 18.4 mph 23.0 mph N/A   Clear
5:34 PM 75.2 °F 60.8 °F 61% 30.04 in 10.0 mi SSE 18.4 mph 26.5 mph N/A   Clear
5:54 PM 75.2 °F 60.8 °F 61% 30.04 in 10.0 mi SSE 13.8 mph - N/A   Clear
6:14 PM 75.2 °F 60.8 °F 61% 30.05 in 10.0 mi SSE 12.7 mph 17.3 mph N/A   Clear
6:34 PM 73.4 °F 59.0 °F 61% 30.04 in 10.0 mi SE 11.5 mph 21.9 mph N/A   Clear
6:54 PM 73.4 °F 57.2 °F 57% 30.04 in 10.0 mi SE 17.3 mph 21.9 mph N/A   Clear
7:14 PM 73.4 °F 57.2 °F 57% 30.04 in 10.0 mi SE 10.4 mph 19.6 mph N/A   Clear
7:34 PM 73.4 °F 57.2 °F 57% 30.04 in 10.0 mi SE 12.7 mph 17.3 mph N/A   Clear
7:54 PM 73.4 °F 57.2 °F 57% 30.04 in 10.0 mi SE 16.1 mph 23.0 mph N/A   Clear
8:14 PM 71.6 °F 60.8 °F 69% 30.04 in 10.0 mi SE 11.5 mph 17.3 mph N/A   Clear
8:34 PM 71.6 °F 60.8 °F 69% 30.04 in 10.0 mi SE 15.0 mph 18.4 mph N/A   Clear
8:54 PM 71.6 °F 60.8 °F 69% 30.05 in 10.0 mi SE 15.0 mph 20.7 mph N/A   Clear
9:14 PM 71.6 °F 60.8 °F 69% 30.05 in 10.0 mi SE 12.7 mph 19.6 mph N/A   Clear
9:34 PM 71.6 °F 60.8 °F 69% 30.05 in 10.0 mi SSE 11.5 mph 18.4 mph N/A   Clear
9:54 PM 71.6 °F 60.8 °F 69% 30.05 in 10.0 mi SE 12.7 mph 18.4 mph N/A   Clear
10:14 PM 71.6 °F 60.8 °F 69% 30.05 in 10.0 mi SE 15.0 mph 20.7 mph N/A   Clear
10:34 PM 71.6 °F 62.6 °F 73% 30.06 in 10.0 mi SE 17.3 mph 21.9 mph N/A   Clear
10:54 PM 71.6 °F 62.6 °F 73% 30.06 in 10.0 mi SSE 16.1 mph 20.7 mph N/A   Clear
11:14 PM 71.6 °F 62.6 °F 73% 30.07 in 10.0 mi SE 10.4 mph 18.4 mph N/A   Clear
11:34 PM 69.8 °F 62.6 °F 78% 30.08 in 10.0 mi SSE 8.1 mph - N/A   Clear
11:54 PM 69.8 °F 62.6 °F 78% 30.09 in 10.0 mi SSE 8.1 mph - N/A   Clear